Regional Weather Roundup
Issued by NWS Goodland, KS

Home | Current Version | Previous Version | Text Only | Print | Product List | Glossary Off
Versions: 1 2 3 4 5 6 7 8 9 10 11 12 13 14 15 16 17 18 19 20 21 22 23 24 25 26 27 28 29 30 31 32 33 34 35 36 37 38 39 40 41 42 43 44 45 46 47 48 49 50

000
ASUS43 KGLD 271759
RWRGLD

GOODLAND FORECAST AREA HOURLY WEATHER ROUNDUP
NATIONAL WEATHER SERVICE GOODLAND KS
1100 AM MST MON FEB 27 2017

...OFFICIAL OBSERVATIONS...

CITY           SKY/WX    TMP DP  RH WIND       PRES   REMARKS
GOODLAND KS    SUNNY     46  20  35 VRB3      29.70F
HILL CITY KS   CLOUDY    50  30  46 S13G20    29.78F
IMPERIAL NEB   SUNNY     39  24  55 S9        29.72F
MCCOOK NEB     CLOUDY    42  27  55 S12       29.77F
AKRON CO       SUNNY     49   6  17 S15       29.66F
BURLINGTON CO  SUNNY     52   9  17 SW18G24   29.71F
LIMON CO       SUNNY     57   7  13 S16       29.69F
$$

...UNOFFICIAL OBSERVATIONS...

CITY           SKY/WX    TMP DP  RH WIND       PRES   REMARKS
LENORA KS        N/A     45  32  60 SE8         N/A
SHARON SPRINGS   N/A     53  22  30 SW7G15      N/A
TRENTON NEB      N/A     43  32  65 S7          N/A
KIT CARSON CO    N/A     46  16  30 MISG        N/A
YUMA CO        FAIR      46   9  21 S9        29.68F
$$




USA.gov is the U.S. government's official web portal to all federal, state and local government web resources and services.